Location: Unspecified
(0.0000°N, 0.0000°E)
Time: 23:46:53
(UTC+02:00)

Cosmos 1538 Rocket - Visible Passes

Search period start: 25 April 2015 00:00
Search period end: 05 May 2015 00:00
Orbit: 753 x 793 km, 74.0° (Epoch: 25 April)

Date Brightness Start Highest point End Pass type
(mag) Time Alt. Az. Time Alt. Az. Time Alt. Az.
25 Apr 7.0 20:28:52 10° SW 20:33:04 22° WNW 20:37:03 10° NNW visible
26 Apr 4.5 07:19:05 10° N 07:24:09 64° ENE 07:29:17 10° SSE visible
27 Apr 5.9 06:44:04 10° NNE 06:48:32 31° ENE 06:53:08 10° SE visible
28 Apr 6.9 06:09:56 10° NE 06:12:51 16° ENE 06:16:05 10° ESE visible
29 Apr 4.0 07:14:15 10° NNW 07:19:16 56° WSW 07:24:20 10° S visible
30 Apr 4.2 06:38:34 10° N 06:43:41 72° ENE 06:48:51 10° SSE visible
01 May 5.5 06:03:26 10° NNE 06:08:04 35° ENE 06:12:48 10° SE visible
02 May 6.5 05:29:05 10° NE 05:32:24 18° ENE 05:35:58 10° ESE visible
02 May 4.9 07:10:13 10° NW 07:14:27 25° WSW 07:18:33 10° SSW visible
03 May 4.1 06:33:49 10° NNW 06:38:47 49° WSW 06:43:47 10° S visible
04 May 3.9 05:58:02 10° N 06:03:11 82° ENE 06:08:23 10° SSE visible
